• In Romania
  • List of Countries
  • For 7 days
  • Water Temperature
  • Satellite Maps
  • Weather Map
  • Weather Widgets
  • user-avatar
    Login

    Hourly Weather Folkern

    Today, 20 October, Saturday

    Time Temperature Precipitation Wind Pressure Humidity
    00:00 +9°C° 0 mm 10 mps 764 mmHg 80%
    01:00 +9°C° 0.3 mm 10 mps 764 mmHg 84%
    02:00 +11°C° 0.3 mm 10 mps 764 mmHg 88%
    03:00 +11°C° 0.3 mm 11 mps 763 mmHg 92%
    04:00 +11°C° 1 mm 11 mps 763 mmHg 93%
    05:00 +12°C° 1 mm 11 mps 763 mmHg 93%
    06:00 +12°C° 1 mm 12 mps 763 mmHg 93%
    07:00 +12°C° 0.4 mm 12 mps 763 mmHg 94%
    08:00 +12°C° 0.4 mm 11 mps 763 mmHg 94%
    09:00 +12°C° 0.4 mm 11 mps 763 mmHg 94%
    10:00 +12°C° 0.1 mm 11 mps 763 mmHg 95%
    11:00 +12°C° 0.1 mm 11 mps 763 mmHg 95%
    12:00 +12°C° 0.1 mm 11 mps 763 mmHg 95%
    13:00 +12°C° 0.1 mm 11 mps 763 mmHg 95%
    14:00 +13°C° 0.1 mm 11 mps 763 mmHg 95%
    15:00 +13°C° 0.1 mm 11 mps 763 mmHg 95%
    16:00 +13°C° 0.1 mm 11 mps 763 mmHg 95%
    17:00 +13°C° 0.1 mm 11 mps 763 mmHg 95%
    18:00 +13°C° 0.1 mm 10 mps 763 mmHg 95%
    19:00 +13°C° 0.1 mm 10 mps 764 mmHg 95%
    20:00 +12°C° 0.1 mm 10 mps 764 mmHg 95%
    21:00 +12°C° 0.1 mm 10 mps 764 mmHg 96%
    22:00 +12°C° 0.3 mm 9 mps 764 mmHg 96%
    23:00 +12°C° 0.3 mm 8 mps 763 mmHg 95%

    Tomorrow, 21 October, Sunday

    Time Temperature Precipitation Wind Pressure Humidity
    00:00 +12°C° 0.3 mm 7 mps 763 mmHg 95%
    01:00 +11°C° 1 mm 7 mps 763 mmHg 93%
    02:00 +10°C° 1 mm 7 mps 763 mmHg 92%
    03:00 +10°C° 1 mm 7 mps 763 mmHg 90%
    04:00 +9°C° 1.3 mm 8 mps 762 mmHg 90%
    05:00 +9°C° 1.3 mm 8 mps 762 mmHg 89%
    06:00 +7°C° 1.3 mm 9 mps 762 mmHg 89%
    07:00 +8°C° 0.8 mm 10 mps 763 mmHg 86%
    08:00 +8°C° 0.8 mm 11 mps 763 mmHg 84%
    09:00 +8°C° 0.8 mm 12 mps 764 mmHg 82%
    10:00 +8°C° 0.1 mm 12 mps 765 mmHg 77%
    11:00 +8°C° 0.1 mm 12 mps 765 mmHg 72%
    12:00 +8°C° 0.1 mm 13 mps 766 mmHg 66%
    13:00 +8°C° 0.1 mm 13 mps 767 mmHg 65%
    14:00 +8°C° 0.1 mm 13 mps 767 mmHg 63%
    15:00 +8°C° 0.1 mm 14 mps 768 mmHg 62%
    16:00 +6°C° 0.1 mm 14 mps 768 mmHg 61%
    17:00 +6°C° 0.1 mm 14 mps 769 mmHg 60%
    18:00 +6°C° 0.1 mm 14 mps 769 mmHg 59%
    19:00 +6°C° 0.1 mm 14 mps 770 mmHg 59%
    20:00 +6°C° 0.1 mm 14 mps 771 mmHg 59%
    21:00 +6°C° 0.1 mm 14 mps 771 mmHg 59%
    22:00 +6°C° 0.2 mm 14 mps 771 mmHg 61%
    23:00 +6°C° 0.2 mm 14 mps 772 mmHg 63%

    Day after tomorrow, 22 October, Monday

    Time Temperature Precipitation Wind Pressure Humidity
    00:00 +6°C° 0.2 mm 14 mps 772 mmHg 66%
    01:00 +6°C° 0.1 mm 14 mps 772 mmHg 66%
    02:00 +6°C° 0.1 mm 14 mps 772 mmHg 66%
    03:00 +8°C° 0.1 mm 13 mps 772 mmHg 66%
    04:00 +8°C° 0.1 mm 13 mps 773 mmHg 67%
    05:00 +8°C° 0.1 mm 13 mps 773 mmHg 68%
    06:00 +8°C° 0.1 mm 13 mps 773 mmHg 69%
    07:00 +8°C° 0.2 mm 13 mps 773 mmHg 73%
    08:00 +8°C° 0.2 mm 14 mps 773 mmHg 77%
    09:00 +9°C° 0.2 mm 14 mps 773 mmHg 81%
    10:00 +9°C° 0.6 mm 15 mps 773 mmHg 82%
    11:00 +9°C° 0.6 mm 15 mps 773 mmHg 83%
    12:00 +9°C° 0.6 mm 15 mps 773 mmHg 84%
    13:00 +9°C° 0.2 mm 15 mps 773 mmHg 83%
    14:00 +9°C° 0.2 mm 14 mps 772 mmHg 83%
    15:00 +9°C° 0.2 mm 14 mps 772 mmHg 83%
    16:00 +9°C° 0.1 mm 14 mps 773 mmHg 83%
    17:00 +9°C° 0.1 mm 13 mps 773 mmHg 83%
    18:00 +9°C° 0.1 mm 13 mps 773 mmHg 83%
    19:00 +9°C° 0.1 mm 13 mps 773 mmHg 84%
    20:00 +9°C° 0.1 mm 12 mps 773 mmHg 85%
    21:00 +9°C° 0.1 mm 12 mps 774 mmHg 86%
    22:00 +9°C° 0.1 mm 12 mps 773 mmHg 87%
    23:00 +9°C° 0.1 mm 12 mps 773 mmHg 88%

    23 October, Tuesday

    Time Temperature Precipitation Wind Pressure Humidity
    00:00 +9°C° 0.1 mm 12 mps 773 mmHg 89%
    01:00 +9°C° 0 mm 12 mps 773 mmHg 89%
    02:00 +9°C° 0 mm 12 mps 773 mmHg 89%
    03:00 +9°C° 0 mm 13 mps 773 mmHg 89%
    04:00 +9°C° 0 mm 12 mps 772 mmHg 88%
    05:00 +9°C° 0 mm 12 mps 772 mmHg 87%
    06:00 +9°C° 0 mm 12 mps 772 mmHg 87%
    07:00 +9°C° 0 mm 12 mps 772 mmHg 87%
    08:00 +9°C° 0 mm 13 mps 772 mmHg 87%
    09:00 +9°C° 0 mm 13 mps 772 mmHg 87%
    10:00 +9°C° 0.1 mm 12 mps 772 mmHg 88%
    11:00 +9°C° 0.1 mm 12 mps 772 mmHg 88%
    12:00 +11°C° 0.1 mm 11 mps 772 mmHg 89%
    13:00 +11°C° 0 mm 11 mps 772 mmHg 89%
    14:00 +11°C° 0 mm 11 mps 772 mmHg 90%
    15:00 +11°C° 0 mm 11 mps 772 mmHg 90%
    16:00 +11°C° 0 mm 10 mps 772 mmHg 90%
    17:00 +11°C° 0 mm 10 mps 772 mmHg 91%
    18:00 +11°C° 0 mm 9 mps 772 mmHg 91%
    19:00 +11°C° 0 mm 9 mps 772 mmHg 91%
    20:00 +11°C° 0 mm 9 mps 772 mmHg 91%
    21:00 +11°C° 0 mm 9 mps 772 mmHg 91%
    22:00 +11°C° 0 mm 9 mps 772 mmHg 91%
    23:00 +11°C° 0 mm 9 mps 772 mmHg 91%

    24 October, Wednesday

    Time Temperature Precipitation Wind Pressure Humidity
    00:00 +10°C° 0 mm 9 mps 772 mmHg 90%
    01:00 +10°C° 0 mm 9 mps 772 mmHg 90%
    02:00 +10°C° 0 mm 9 mps 772 mmHg 89%
    03:00 +8°C° 0 mm 9 mps 772 mmHg 88%
    04:00 +8°C° 0 mm 9 mps 772 mmHg 88%
    05:00 +8°C° 0 mm 9 mps 772 mmHg 87%
    06:00 +8°C° 0 mm 9 mps 771 mmHg 87%
    07:00 +8°C° 0 mm 9 mps 772 mmHg 87%
    08:00 +8°C° 0 mm 9 mps 772 mmHg 86%
    09:00 +8°C° 0 mm 9 mps 772 mmHg 86%
    10:00 +9°C° 0 mm 8 mps 772 mmHg 86%
    11:00 +9°C° 0 mm 8 mps 772 mmHg 86%
    12:00 +9°C° 0 mm 8 mps 772 mmHg 86%
    13:00 +9°C° 0.1 mm 8 mps 772 mmHg 86%
    14:00 +9°C° 0.1 mm 8 mps 771 mmHg 85%
    15:00 +9°C° 0.1 mm 8 mps 771 mmHg 85%
    16:00 +8°C° 0.1 mm 9 mps 771 mmHg 85%
    17:00 +8°C° 0.1 mm 9 mps 771 mmHg 85%
    18:00 +8°C° 0.1 mm 9 mps 770 mmHg 84%
    19:00 +8°C° 0.1 mm 9 mps 770 mmHg 84%
    20:00 +8°C° 0.1 mm 9 mps 770 mmHg 85%
    21:00 +8°C° 0.1 mm 9 mps 770 mmHg 85%
    22:00 +8°C° 0.1 mm 9 mps 770 mmHg 85%
    23:00 +8°C° 0.1 mm 9 mps 770 mmHg 85%

    25 October, Thursday

    Time Temperature Precipitation Wind Pressure Humidity
    00:00 +10°C° 0.1 mm 9 mps 769 mmHg 85%
    01:00 +9°C° 0.1 mm 10 mps 769 mmHg 85%
    02:00 +9°C° 0.1 mm 10 mps 768 mmHg 86%
    03:00 +9°C° 0.1 mm 10 mps 768 mmHg 86%
    04:00 +9°C° 0 mm 10 mps 767 mmHg 87%
    05:00 +9°C° 0 mm 11 mps 767 mmHg 87%
    06:00 +9°C° 0 mm 11 mps 767 mmHg 88%
    07:00 +9°C° 0.1 mm 11 mps 767 mmHg 88%
    08:00 +9°C° 0.1 mm 11 mps 767 mmHg 88%
    09:00 +11°C° 0.1 mm 11 mps 767 mmHg 88%
    10:00 +9°C° 0.1 mm 12 mps 767 mmHg 83%
    11:00 +8°C° 0.1 mm 12 mps 767 mmHg 77%
    12:00 +7°C° 0.1 mm 12 mps 767 mmHg 71%
    13:00 +7°C° 0 mm 12 mps 768 mmHg 69%
    14:00 +7°C° 0 mm 12 mps 768 mmHg 67%
    15:00 +7°C° 0 mm 12 mps 768 mmHg 65%
    16:00 +7°C° 0.1 mm 13 mps 769 mmHg 66%
    17:00 +5°C° 0.1 mm 13 mps 769 mmHg 66%
    18:00 +5°C° 0.1 mm 13 mps 769 mmHg 66%
    19:00 +5°C° 0.1 mm 12 mps 770 mmHg 66%
    20:00 +5°C° 0.1 mm 12 mps 770 mmHg 66%
    21:00 +5°C° 0.1 mm 12 mps 770 mmHg 65%
    22:00 +5°C° 0 mm 12 mps 770 mmHg 67%
    23:00 +7°C° 0 mm 12 mps 771 mmHg 68%
    Show more